Location: Stendal
(52.5994°N, 11.8400°E)
Time: 19:20:58
(UTC+01:00)

Envisat - Pass Details

Date: 05 October 2022
Orbit: 763 x 765 km, 98.2° (Epoch: 30 November)

Event Time Altitude Azimuth Distance (km) Brightness Sun altitude
Rises 04:41:46 0° 22° (NNE) 3,247 7.0 -24.3°
Reaches altitude 10° 04:44:26 10° 34° (NE) 2,315 6.3 -23.9°
Maximum altitude 04:48:45 27° 92° (E) 1,442 5.0 -23.3°
Drops below altitude 10° 04:53:02 10° 150° (SSE) 2,300 5.5 -22.7°
Sets 04:55:39 0° 162° (SSE) 3,220 6.2 -22.3°
